[[{"header":{"parameterUnit":"m.s-1","parameterCategory":1,"la1":30.2991,"la2":30.254,"lo1":-89.0895,"lo2":-89.0444,"dy":0.0017,"dx":0.0017,"nx":28,"ny":28,"refTime":"2025-01-19T09:00:00:Z","depth":0,"parameterNumber":2,"parameterNumberName":"U-component_of_WINDS"},"data":[0,0,0,0,0,0,0,0,0,0,0,0,0,0,0,0,0,0,0,0,0,0,0,0,0,0,0,0,0,0,0,0,0,0,0,0,0,0,0,0,0,0,0,0,0,0,0,0,0,0,0,0,0,0,0,0,0,0,3.4138,3.4139,0,3.4197,3.4198,3.4198,3.4184,3.4183,3.4182,3.4181,3.4241,3.4243,3.4246,0,0,0,0,0,0,0,0,0,0,0,0,0,3.4014,3.4016,3.4138,3.4139,3.4139,3.4197,3.4198,3.4199,3.4184,3.4183,3.4182,3.418,3.424,3.4243,3.4246,0,0,0,0,0,0,0,0,0,0,0,0,0,3.407,3.4017,3.4138,3.4139,3.414,3.4197,3.4198,3.4199,3.4185,3.4183,3.4181,3.418,3.4239,3.4243,3.4247,3.4305,0,0,3.4259,3.426,0,0,0,0,0,0,0,0,3.4067,3.4074,3.4138,3.4139,3.414,3.4182,3.4176,3.4234,3.4185,3.4168,3.4181,3.4179,3.4222,3.4228,3.4242,3.4308,3.4311,3.4259,3.4261,3.4263,3.4264,0,0,0,0,0,0,0,3.4063,3.4072,3.4161,3.4139,3.4141,3.4137,3.4143,3.4187,3.4204,3.4169,3.4168,3.4175,3.4222,3.4239,3.4244,3.4311,3.4259,3.4262,3.4265,3.4266,3.4431,3.4432,0,0,0,0,0,0,3.4058,3.4069,3.4159,3.4163,3.4099,3.4141,3.4148,3.417,3.4203,3.4207,3.4177,3.4175,3.4233,3.4239,3.4246,3.4318,3.4263,3.4267,3.4269,3.4429,3.4431,3.4433,0,0,0,0,0,0,3.4056,3.4066,3.4157,3.4116,3.4127,3.4145,3.417,3.4172,3.4188,3.4209,3.4212,3.419,3.4231,3.424,3.4291,3.432,3.4269,3.4272,3.4426,3.4429,3.4432,3.4462,0,0,0,0,0,0,3.4052,3.4066,3.4088,3.4116,3.4129,3.4201,3.4172,3.4174,3.4195,3.4193,3.4222,3.4226,3.4231,3.4285,3.4295,3.4324,3.4275,3.4424,3.4428,3.4431,3.4458,3.4465,3.4471,0,0,0,0,0,3.4048,3.4093,3.4089,3.41,3.4157,3.4203,3.421,3.4215,3.4197,3.422,3.4234,3.4225,3.4315,3.4291,3.4301,3.4332,3.4422,3.4427,3.4431,3.4455,3.4464,3.4471,0,0,0,0,0,0,3.4066,3.4097,3.4092,3.4148,3.4173,3.42,3.4229,3.4224,3.4254,3.4251,3.4256,3.4263,3.4315,3.4329,3.4301,3.4392,3.4366,3.4373,3.4381,3.4389,3.4396,3.4391,3.4279,0,0,0,0,0,3.4077,3.4111,3.4136,3.4183,3.4196,3.4211,3.423,3.4233,3.4258,3.4269,3.4286,3.4312,3.4346,3.4368,3.4401,3.4461,3.4467,3.4487,3.4494,3.4499,3.4505,3.4539,3.4549,3.4448,3.4448,3.4448,0,0,3.4099,3.412,3.4141,3.4188,3.4207,3.4243,3.4219,3.4258,3.4285,3.4274,3.4324,3.4338,3.4367,3.4423,3.4449,3.4436,3.4535,3.4505,3.4509,3.4512,3.4545,3.4554,3.4563,3.4451,3.445,3.445,0,0,3.4158,3.4177,3.4219,3.424,3.427,3.428,3.429,3.4319,3.4328,3.4378,3.4372,3.4404,3.4462,3.4484,3.4502,3.4573,3.4566,3.4583,3.4617,3.465,3.4658,3.4665,3.4691,3.47,3.4589,3.4589,3.4589,0,3.4182,3.4236,3.4241,3.4281,3.4302,3.4296,3.4339,3.4359,3.4398,3.4413,3.4399,3.4474,3.4492,3.4554,3.4572,3.4586,3.4599,3.4579,3.4657,3.4664,3.4671,3.4695,3.4705,3.4591,3.4591,3.459,3.459,0,3.4264,3.4302,3.4332,3.4371,3.4396,3.4437,3.4449,3.4474,3.4475,3.4486,3.4538,3.4561,3.4599,3.4614,3.4614,3.4676,3.4668,3.4655,3.4629,3.4682,3.4705,3.4715,3.4594,3.4593,3.4592,3.4592,0,0,3.4334,3.4378,3.4389,3.4408,3.4442,3.4471,3.4513,3.4551,3.4572,3.46,3.4636,3.4687,3.4676,3.4697,3.47,3.473,3.4785,3.4714,3.4714,3.4727,3.4856,3.4866,3.4877,3.4781,3.4783,3.4784,3.4854,0,3.4397,3.447,3.4478,3.4544,3.458,3.4575,3.4612,3.4637,3.465,3.4682,3.4696,3.4732,3.4715,3.4728,3.4757,3.4772,3.4811,3.4767,3.4815,3.4816,3.4808,3.4889,3.4898,3.4963,3.4863,3.4865,3.4866,0,3.4479,3.4511,3.458,3.4612,3.4627,3.466,3.4696,3.4727,3.4756,3.4763,3.4788,3.4788,3.4832,3.4805,3.4867,3.4837,3.4857,3.4868,3.4871,3.4875,3.4844,3.4895,3.4983,3.4993,3.488,3.4879,3.4878,0,3.4525,3.4584,3.4634,3.465,3.4688,3.4711,3.4728,3.4755,3.4778,3.481,3.4826,3.4862,3.4882,3.4911,3.4921,3.49,3.4983,3.4956,3.499,3.499,3.5007,3.5006,3.51,3.502,3.502,3.502,3.502,0,3.4593,3.4636,3.4656,3.4686,3.4735,3.4744,3.4792,3.4807,3.4833,3.4867,3.4865,3.4898,3.4909,3.4944,3.4952,3.5003,3.5012,3.5019,3.5021,3.5019,3.5018,3.5032,3.5028,3.5022,3.5022,3.5021,3.5021,0,3.4652,3.4666,3.4721,3.4752,3.4761,3.4796,3.4823,3.4853,3.4866,3.491,3.4921,3.4941,3.4982,3.4995,3.5044,3.505,3.5109,3.5107,3.5099,3.5099,3.5133,3.513,3.5239,3.5254,3.5165,3.5165,3.5166,0,3.4695,3.4728,3.4764,3.4787,3.4805,3.4842,3.4866,3.4876,3.4901,3.4939,3.4965,3.5005,3.5038,3.5104,3.5123,3.5161,3.516,3.5196,3.5166,3.5164,3.5161,3.5159,3.5163,3.5201,3.5202,3.5203,3.5204,0,3.477,3.4776,3.481,3.4848,3.4877,3.4907,3.4936,3.4955,3.4971,3.4999,3.5041,3.5067,3.5118,3.5159,3.5198,3.5216,3.5213,3.5213,3.5223,3.5222,3.5216,3.5221,3.5115,3.521,3.521,3.5209,3.5209,3.5209,3.4822,3.4852,3.4883,3.4922,3.4945,3.4973,3.5003,3.5021,3.5056,3.5099,3.5103,3.5149,3.5179,3.5232,3.5252,3.5288,3.5278,3.5293,3.5296,3.53,3.5303,3.5211,3.5296,3.5295,3.5295,3.5295,3.5295,0,3.4898,3.4918,3.4953,3.4995,3.5026,3.5021,3.5054,3.508,3.5121,3.515,3.5183,3.5232,3.5272,3.5296,3.5336,3.5361,3.5361,3.5371,3.5369,3.5374,3.5309,3.5296,3.5371,3.5371,3.5371,3.5371,3.5371,3.5371,3.4941,3.4992,3.5002,3.5065,3.5084,3.513,3.5149,3.5175,3.5198,3.5254,3.5287,3.5302,3.533,3.5372,3.5409,3.5415,3.5431,3.5442,3.5447,3.5386,3.5378,3.5371,3.5359,3.5445,3.5445,3.5509,3.551,3.551]},{"header":{"parameterUnit":"m.s-1","parameterCategory":1,"la1":30.2991,"la2":30.254,"lo1":-89.0895,"lo2":-89.0444,"dy":0.0017,"dx":0.0017,"nx":28,"ny":28,"refTime":"2025-01-19T09:00:00:Z","depth":0,"parameterNumber":3,"parameterNumberName":"V-component_of_WINDS"},"data":[0,0,0,0,0,0,0,0,0,0,0,0,0,0,0,0,0,0,0,0,0,0,0,0,0,0,0,0,0,0,0,0,0,0,0,0,0,0,0,0,0,0,0,0,0,0,0,0,0,0,0,0,0,0,0,0,0,0,-7.2635,-7.2637,0,-7.2757,-7.2759,-7.276,-7.2732,-7.273,-7.2728,-7.2726,-7.2846,-7.2851,-7.2856,0,0,0,0,0,0,0,0,0,0,0,0,0,-7.2376,-7.2381,-7.2635,-7.2637,-7.2638,-7.2757,-7.2759,-7.276,-7.2733,-7.273,-7.2727,-7.2725,-7.2844,-7.285,-7.2857,0,0,0,0,0,0,0,0,0,0,0,0,0,-7.2492,-7.2382,-7.2635,-7.2639,-7.2641,-7.2757,-7.2759,-7.2761,-7.2733,-7.273,-7.2726,-7.2723,-7.2842,-7.285,-7.2858,-7.2976,0,0,-7.2882,-7.2886,0,0,0,0,0,0,0,0,-7.2485,-7.2502,-7.2637,-7.2639,-7.2641,-7.2726,-7.2711,-7.2833,-7.2734,-7.2698,-7.2726,-7.2722,-7.2808,-7.2819,-7.2849,-7.2982,-7.2987,-7.2883,-7.2888,-7.2891,-7.2893,0,0,0,0,0,0,0,-7.2477,-7.2496,-7.2683,-7.2639,-7.2641,-7.2634,-7.2646,-7.2734,-7.2771,-7.2701,-7.2699,-7.2714,-7.2809,-7.2842,-7.2852,-7.2989,-7.2883,-7.289,-7.2895,-7.2898,-7.3226,-7.323,0,0,0,0,0,0,-7.2468,-7.249,-7.2679,-7.2687,-7.2553,-7.2641,-7.2655,-7.2702,-7.277,-7.2777,-7.2717,-7.2713,-7.283,-7.2843,-7.2856,-7.3001,-7.2891,-7.2899,-7.2903,-7.3222,-7.3227,-7.3231,0,0,0,0,0,0,-7.2463,-7.2485,-7.2675,-7.2588,-7.2612,-7.2649,-7.2702,-7.2706,-7.2739,-7.2782,-7.2788,-7.2744,-7.2827,-7.2845,-7.2947,-7.3004,-7.2902,-7.2909,-7.3217,-7.3224,-7.3229,-7.329,0,0,0,0,0,0,-7.2455,-7.2484,-7.2529,-7.2589,-7.2616,-7.2765,-7.2706,-7.2711,-7.2754,-7.2749,-7.2809,-7.2816,-7.2826,-7.2935,-7.2955,-7.3013,-7.2916,-7.3213,-7.322,-7.3227,-7.3283,-7.3297,-7.3309,0,0,0,0,0,-7.2446,-7.254,-7.2532,-7.2555,-7.2675,-7.2768,-7.2783,-7.2795,-7.2758,-7.2805,-7.2833,-7.2814,-7.2995,-7.2946,-7.2968,-7.303,-7.3209,-7.3218,-7.3227,-7.3277,-7.3294,-7.3309,0,0,0,0,0,0,-7.2484,-7.2548,-7.2539,-7.2656,-7.2707,-7.2763,-7.2822,-7.2812,-7.2874,-7.2866,-7.2876,-7.289,-7.2995,-7.3022,-7.2967,-7.3149,-7.3097,-7.311,-7.3127,-7.3144,-7.3157,-7.3148,-7.2922,0,0,0,0,0,-7.2506,-7.2578,-7.2629,-7.2727,-7.2753,-7.2783,-7.2824,-7.2829,-7.2882,-7.2903,-7.2938,-7.2989,-7.3057,-7.3102,-7.3167,-7.3286,-7.33,-7.334,-7.3353,-7.3363,-7.3375,-7.3442,-7.346,-7.326,-7.326,-7.326,0,0,-7.2551,-7.2596,-7.264,-7.2736,-7.2776,-7.2849,-7.2802,-7.2881,-7.2935,-7.2914,-7.3014,-7.3042,-7.3099,-7.3211,-7.3262,-7.3237,-7.3434,-7.3375,-7.3383,-7.3389,-7.3453,-7.3472,-7.3489,-7.3266,-7.3265,-7.3264,0,0,-7.2673,-7.2713,-7.28,-7.2842,-7.2904,-7.2924,-7.2945,-7.3004,-7.3022,-7.3123,-7.3109,-7.3174,-7.3291,-7.3333,-7.337,-7.351,-7.3495,-7.3531,-7.3599,-7.3664,-7.368,-7.3694,-7.3745,-7.3763,-7.3542,-7.3542,-7.3542,0,-7.2721,-7.2833,-7.2845,-7.2927,-7.297,-7.2957,-7.3045,-7.3084,-7.3164,-7.3194,-7.3165,-7.3314,-7.3351,-7.3474,-7.3508,-7.3538,-7.3562,-7.3524,-7.3677,-7.3691,-7.3704,-7.3753,-7.3772,-7.3546,-7.3546,-7.3545,-7.3545,0,-7.289,-7.2968,-7.303,-7.3111,-7.316,-7.3244,-7.3269,-7.3318,-7.3319,-7.3342,-7.3445,-7.349,-7.3565,-7.3594,-7.3595,-7.3718,-7.37,-7.3674,-7.3622,-7.3727,-7.3773,-7.3792,-7.3552,-7.3551,-7.3549,-7.3548,0,0,-7.3037,-7.3125,-7.3148,-7.3185,-7.3254,-7.3314,-7.3398,-7.3473,-7.3516,-7.3571,-7.3642,-7.3743,-7.372,-7.3762,-7.3767,-7.3824,-7.3934,-7.3791,-7.3793,-7.3817,-7.4074,-7.4093,-7.4115,-7.3925,-7.3929,-7.3931,-7.4069,0,-7.3165,-7.3315,-7.333,-7.3464,-7.3536,-7.3526,-7.3599,-7.3649,-7.3673,-7.3737,-7.3763,-7.3835,-7.3799,-7.3824,-7.388,-7.3909,-7.3986,-7.3899,-7.3991,-7.3994,-7.3977,-7.4139,-7.4159,-7.4287,-7.4087,-7.409,-7.4092,0,-7.3335,-7.3399,-7.354,-7.3602,-7.3632,-7.3698,-7.377,-7.3831,-7.3888,-7.3901,-7.395,-7.3948,-7.4034,-7.3979,-7.4098,-7.4039,-7.4077,-7.4097,-7.4103,-7.4112,-7.405,-7.4153,-7.4328,-7.4347,-7.412,-7.4118,-7.4116,0,-7.3429,-7.355,-7.3651,-7.3683,-7.3757,-7.3804,-7.3836,-7.3889,-7.3935,-7.3997,-7.4026,-7.4097,-7.4135,-7.419,-7.4207,-7.4165,-7.4326,-7.4272,-7.4339,-7.4339,-7.4373,-7.4371,-7.4558,-7.4397,-7.4397,-7.4397,-7.4396,0,-7.3571,-7.3659,-7.3695,-7.3757,-7.3855,-7.3871,-7.3967,-7.3997,-7.4045,-7.4113,-7.4107,-7.417,-7.4189,-7.4256,-7.427,-7.4367,-7.4384,-7.4397,-7.44,-7.4398,-7.4396,-7.4423,-7.4415,-7.4402,-7.4401,-7.44,-7.4399,0,-7.3693,-7.3721,-7.3831,-7.3892,-7.391,-7.398,-7.4032,-7.4092,-7.4115,-7.4201,-7.4222,-7.4259,-7.4337,-7.436,-7.4453,-7.4462,-7.4577,-7.4571,-7.4558,-7.4559,-7.4625,-7.4619,-7.4836,-7.4866,-7.4685,-7.4687,-7.4688,0,-7.3782,-7.3849,-7.3919,-7.3965,-7.4001,-7.4074,-7.4121,-7.414,-7.4188,-7.426,-7.4311,-7.4389,-7.4452,-7.4577,-7.4612,-7.4683,-7.468,-7.4751,-7.469,-7.4687,-7.4682,-7.4678,-7.4685,-7.4762,-7.4764,-7.4766,-7.4767,0,-7.3937,-7.3949,-7.4017,-7.4092,-7.4149,-7.4208,-7.4265,-7.4302,-7.4329,-7.4384,-7.4465,-7.4515,-7.4612,-7.4689,-7.4762,-7.4794,-7.4786,-7.4786,-7.4805,-7.4805,-7.4795,-7.4802,-7.459,-7.4781,-7.4779,-7.4778,-7.4777,-7.4777,-7.4046,-7.4107,-7.4166,-7.4243,-7.4289,-7.4342,-7.4403,-7.4435,-7.4504,-7.4585,-7.4592,-7.468,-7.4736,-7.4834,-7.487,-7.4939,-7.4918,-7.4946,-7.4953,-7.496,-7.4966,-7.4784,-7.4952,-7.4952,-7.4951,-7.4951,-7.4951,0,-7.4202,-7.4241,-7.4312,-7.4393,-7.4454,-7.4443,-7.4505,-7.4557,-7.4635,-7.4689,-7.4753,-7.4847,-7.4922,-7.4964,-7.5039,-7.5086,-7.5084,-7.5105,-7.5102,-7.511,-7.498,-7.4956,-7.5106,-7.5106,-7.5106,-7.5106,-7.5106,-7.5106,-7.4291,-7.4393,-7.4412,-7.4536,-7.4574,-7.4662,-7.4699,-7.4749,-7.4792,-7.4898,-7.4962,-7.4989,-7.5038,-7.5118,-7.5187,-7.5197,-7.5225,-7.5249,-7.5257,-7.5135,-7.5119,-7.5104,-7.5081,-7.5255,-7.5255,-7.5381,-7.5382,-7.5383]}]]